| time (UTC) | temp F | wind direction | speed knots | gust knots | rain 1hr in | rain 24hr in | rain mn in | humidity % | barometer mb |
| 20260507111330 | 79 | 256 | 0.0 | 1.7 | 0.00 | 0.00 | 0.00 | 33 | 1005.2 |
| 20260507110330 | 79 | 217 | 0.0 | 2.6 | 0.00 | 0.00 | 0.00 | 33 | 1005.5 |
| 20260507105330 | 78 | 147 | 0.0 | 1.7 | 0.00 | 0.00 | 0.00 | 35 | 1005.6 |
| 20260507104330 | 78 | 49 | 0.0 | 1.7 | 0.00 | 0.00 | 0.00 | 34 | 1005.6 |
| 20260507103330 | 78 | 246 | 0.0 | 0.0 | 0.00 | 0.00 | 0.00 | 37 | 1005.8 |
| 20260507102330 | 78 | 123 | 0.9 | 3.5 | 0.00 | 0.00 | 0.00 | 34 | 1005.9 |
| 20260507101330 | 78 | 315 | 0.0 | 1.7 | 0.00 | 0.00 | 0.00 | 33 | 1005.8 |
| 20260507100330 | 78 | 0 | 0.0 | 1.7 | 0.00 | 0.00 | 0.00 | 34 | 1005.9 |
| 20260507095330 | 77 | 243 | 0.0 | 2.6 | 0.00 | 0.00 | 0.00 | 35 | 1005.9 |
| 20260507094330 | 77 | 319 | 0.0 | 2.6 | 0.00 | 0.00 | 0.00 | 35 | 1006.1 |
| 20260507093330 | 76 | 133 | 0.9 | 2.6 | 0.00 | 0.00 | 0.00 | 35 | 1006.0 |
| 20260507092330 | 76 | 52 | 0.0 | 1.7 | 0.00 | 0.00 | 0.00 | 34 | 1006.0 |
| 20260507091330 | 76 | 300 | 1.7 | 2.6 | 0.00 | 0.00 | 0.00 | 35 | 1006.1 |
| 20260507090330 | 74 | 320 | 1.7 | 2.6 | 0.00 | 0.00 | 0.00 | 37 | 1006.1 |
| 20260507085330 | 74 | 120 | 0.9 | 2.6 | 0.00 | 0.00 | 0.00 | 37 | 1006.2 |
| 20260507084330 | 73 | 82 | 1.7 | 1.7 | 0.00 | 0.00 | 0.00 | 38 | 1006.1 |
| 20260507083330 | 73 | 41 | 1.7 | 2.6 | 0.00 | 0.00 | 0.00 | 39 | 1006.1 |
| 20260507082330 | 71 | 235 | 0.0 | 0.9 | 0.00 | 0.00 | 0.00 | 41 | 1006.1 |
| 20260507081330 | 70 | 185 | 0.9 | 1.7 | 0.00 | 0.00 | 0.00 | 42 | 1006.1 |
| 20260507080330 | 69 | 106 | 1.7 | 1.7 | 0.00 | 0.00 | 0.00 | 43 | 1006.2 |
| 20260507075330 | 68 | 67 | 1.7 | 3.5 | 0.00 | 0.00 | 0.00 | 46 | 1005.8 |
| 20260507074330 | 68 | 161 | 1.7 | 3.5 | 0.00 | 0.00 | 0.00 | 46 | 1005.8 |
| 20260507073330 | 67 | 239 | 0.0 | 1.7 | 0.00 | 0.00 | 0.00 | 46 | 1005.9 |
| 20260507072330 | 66 | 327 | 0.9 | 2.6 | 0.00 | 0.00 | 0.00 | 51 | 1006.3 |
| 20260507071330 | 66 | 124 | 0.9 | 1.7 | 0.00 | 0.00 | 0.00 | 50 | 1006.2 |
| 20260507070330 | 65 | 195 | 0.0 | 1.7 | 0.00 | 0.00 | 0.00 | 53 | 1006.1 |
| 20260507065330 | 64 | 147 | 1.7 | 2.6 | 0.00 | 0.00 | 0.00 | 53 | 1006.0 |
| 20260507064330 | 63 | 27 | 1.7 | 3.5 | 0.00 | 0.00 | 0.00 | 55 | 1006.2 |
| 20260507063330 | 62 | 62 | 0.0 | 2.6 | 0.00 | 0.00 | 0.00 | 57 | 1006.1 |
| 20260507062330 | 60 | 148 | 0.9 | 3.5 | 0.00 | 0.00 | 0.00 | 58 | 1006.1 |
| 20260507061330 | 61 | 182 | 0.0 | 1.7 | 0.00 | 0.00 | 0.00 | 58 | 1005.8 |
| 20260507060330 | 60 | 107 | 1.7 | 3.5 | 0.00 | 0.00 | 0.00 | 62 | 1006.0 |
| 20260507055330 | 59 | 82 | 1.7 | 3.5 | 0.00 | 0.00 | 0.00 | 63 | 1006.0 |
| 20260507054330 | 58 | 195 | 0.0 | 0.9 | 0.00 | 0.00 | 0.00 | 67 | 1006.2 |
| 20260507053330 | 56 | 39 | 1.7 | 2.6 | 0.00 | 0.00 | 0.00 | 68 | 1006.2 |
| 20260507052509 | 56 | 149 | 0.0 | 4.3 | 0.00 | 0.00 | 0.00 | 68 | 1006.0 |
| 20260507051509 | 57 | 136 | 1.7 | 5.2 | 0.00 | 0.00 | 0.00 | 66 | 1005.9 |
| 20260507050509 | 57 | 76 | 1.7 | 3.5 | 0.00 | 0.00 | 0.00 | 69 | 1006.1 |
| 20260507045717 | 56 | 181 | 0.0 | 4.3 | 0.00 | 0.00 | 0.00 | 70 | 1006.2 |
| 20260507045547 | 56 | 160 | 3.5 | 3.5 | 0.00 | 0.00 | 0.00 | 70 | 1006.1 |
| 20260507044547 | 55 | 162 | 2.6 | 3.5 | 0.00 | 0.00 | 0.00 | 71 | 1006.2 |
| 20260507043547 | 54 | 136 | 2.6 | 3.5 | 0.00 | 0.00 | 0.00 | 75 | 1006.0 |
| 20260507042547 | 53 | 99 | 1.7 | 3.5 | 0.00 | 0.00 | 0.00 | 77 | 1006.0 |
| 20260507041547 | 52 | 43 | 0.0 | 3.5 | 0.00 | 0.00 | 0.00 | 78 | 1005.9 |
| 20260507040547 | 52 | 327 | 0.0 | 1.7 | 0.00 | 0.00 | 0.00 | 80 | 1005.7 |
| 20260507035547 | 52 | 212 | 0.0 | 3.5 | 0.00 | 0.00 | 0.00 | 80 | 1005.9 |
| 20260507034547 | 50 | 320 | 0.0 | 2.6 | 0.00 | 0.00 | 0.00 | 83 | 1005.8 |
| 20260507033547 | 50 | 341 | 0.0 | 5.2 | 0.00 | 0.00 | 0.00 | 83 | 1005.7 |
| 20260507032547 | 50 | 284 | 2.6 | 3.5 | 0.00 | 0.00 | 0.00 | 84 | 1005.7 |
| 20260507031547 | 50 | 178 | 0.9 | 4.3 | 0.00 | 0.00 | 0.00 | 84 | 1005.8 |
| 20260507030547 | 50 | 26 | 0.9 | 4.3 | 0.00 | 0.00 | 0.00 | 84 | 1005.5 |
| 20260507025547 | 50 | 209 | 0.0 | 4.3 | 0.00 | 0.00 | 0.00 | 83 | 1005.5 |
| 20260507024547 | 50 | 45 | 1.7 | 3.5 | 0.00 | 0.00 | 0.00 | 83 | 1005.3 |
| 20260507023547 | 51 | 36 | 1.7 | 5.2 | 0.00 | 0.00 | 0.00 | 82 | 1005.6 |
| 20260507022547 | 51 | 31 | 2.6 | 3.5 | 0.00 | 0.00 | 0.00 | 82 | 1005.7 |
| 20260507021547 | 51 | 152 | 1.7 | 3.5 | 0.00 | 0.00 | 0.00 | 81 | 1005.3 |
| 20260507020547 | 51 | 51 | 1.7 | 4.3 | 0.00 | 0.00 | 0.00 | 82 | 1005.3 |
| 20260507015547 | 51 | 35 | 0.9 | 3.5 | 0.00 | 0.00 | 0.00 | 81 | 1005.2 |
| 20260507014547 | 51 | 11 | 0.9 | 3.5 | 0.00 | 0.00 | 0.00 | 81 | 1005.4 |
| 20260507013547 | 51 | 28 | 2.6 | 5.2 | 0.00 | 0.00 | 0.00 | 80 | 1005.2 |
| 20260507012547 | 52 | 154 | 0.9 | 4.3 | 0.00 | 0.00 | 0.00 | 79 | 1005.3 |
| 20260507011547 | 52 | 3 | 1.7 | 5.2 | 0.00 | 0.00 | 0.00 | 78 | 1005.4 |
| 20260507010547 | 52 | 121 | 3.5 | 7.0 | 0.00 | 0.00 | 0.00 | 78 | 1005.3 |
| 20260507005547 | 52 | 56 | 1.7 | 3.5 | 0.00 | 0.00 | 0.00 | 77 | 1005.1 |
| 20260507004547 | 52 | 280 | 1.7 | 2.6 | 0.00 | 0.00 | 0.00 | 76 | 1005.3 |
| 20260507003547 | 53 | 59 | 2.6 | 5.2 | 0.00 | 0.00 | 0.00 | 75 | 1005.2 |
| 20260507002547 | 53 | 169 | 0.9 | 5.2 | 0.00 | 0.00 | 0.00 | 75 | 1005.2 |
| 20260507001547 | 53 | 292 | 2.6 | 5.2 | 0.00 | 0.00 | 0.00 | 75 | 1005.0 |
| 20260507000547 | 53 | 36 | 1.7 | 4.3 | 0.00 | 0.00 | 0.00 | 75 | 1005.0 |
| 20260506235547 | 54 | 131 | 0.9 | 3.5 | 0.00 | 0.00 | 0.00 | 74 | 1005.1 |
| 20260506234547 | 54 | 313 | 0.0 | 2.6 | 0.00 | 0.00 | 0.00 | 73 | 1005.2 |
| 20260506233547 | 54 | 15 | 1.7 | 3.5 | 0.00 | 0.00 | 0.00 | 73 | 1005.1 |
| 20260506232547 | 54 | 203 | 0.0 | 2.6 | 0.00 | 0.00 | 0.00 | 72 | 1005.2 |
| 20260506231547 | 55 | 22 | 0.0 | 1.7 | 0.00 | 0.00 | 0.00 | 69 | 1005.2 |
| 20260506230547 | 56 | 336 | 0.0 | 0.9 | 0.00 | 0.00 | 0.00 | 65 | 1005.3 |
| 20260506225547 | 56 | 25 | 0.0 | 0.9 | 0.00 | 0.00 | 0.00 | 61 | 1005.3 |
| 20260506224547 | 56 | 344 | 0.9 | 0.9 | 0.00 | 0.00 | 0.00 | 61 | 1005.4 |
| 20260506223547 | 57 | 69 | 0.0 | 0.0 | 0.00 | 0.00 | 0.00 | 60 | 1005.3 |
| 20260506222547 | 58 | 32 | 0.0 | 0.0 | 0.00 | 0.00 | 0.00 | 60 | 1005.4 |
| 20260506221547 | 58 | 297 | 0.0 | 0.0 | 0.00 | 0.00 | 0.00 | 58 | 1005.4 |
| 20260506220547 | 59 | 218 | 0.0 | 1.7 | 0.00 | 0.00 | 0.00 | 57 | 1005.1 |
| 20260506215547 | 59 | 154 | 0.0 | 1.7 | 0.00 | 0.00 | 0.00 | 56 | 1005.0 |
| 20260506214547 | 59 | 93 | 0.0 | 1.7 | 0.00 | 0.00 | 0.00 | 55 | 1004.8 |
| 20260506213547 | 60 | 337 | 0.0 | 0.9 | 0.00 | 0.00 | 0.00 | 54 | 1005.0 |
| 20260506212547 | 60 | 235 | 0.0 | 1.7 | 0.00 | 0.00 | 0.00 | 55 | 1005.0 |
| 20260506211547 | 60 | 316 | 0.0 | 1.7 | 0.00 | 0.00 | 0.00 | 56 | 1004.8 |
| 20260506210547 | 60 | 135 | 0.0 | 1.7 | 0.00 | 0.00 | 0.00 | 58 | 1004.9 |
| 20260506205547 | 61 | 135 | 0.0 | 0.9 | 0.00 | 0.00 | 0.00 | 58 | 1004.9 |
| 20260506204547 | 62 | 111 | 0.0 | 0.9 | 0.00 | 0.00 | 0.00 | 55 | 1004.7 |
| 20260506203547 | 62 | 113 | 0.0 | 1.7 | 0.00 | 0.00 | 0.00 | 54 | 1005.0 |
| 20260506202547 | 62 | 264 | 0.0 | 0.0 | 0.00 | 0.00 | 0.00 | 55 | 1004.7 |
| 20260506201547 | 62 | 343 | 0.0 | 1.7 | 0.00 | 0.00 | 0.00 | 58 | 1004.5 |
| 20260506200547 | 62 | 246 | 0.0 | 0.9 | 0.00 | 0.00 | 0.00 | 58 | 1004.6 |
| 20260506195547 | 63 | 75 | 1.7 | 1.7 | 0.00 | 0.00 | 0.00 | 58 | 1004.8 |
| 20260506194547 | 63 | 160 | 0.0 | 1.7 | 0.00 | 0.00 | 0.00 | 57 | 1004.8 |
| 20260506193547 | 64 | 131 | 0.0 | 0.9 | 0.00 | 0.00 | 0.00 | 56 | 1004.6 |
| 20260506192547 | 64 | 323 | 0.9 | 1.7 | 0.00 | 0.00 | 0.00 | 55 | 1004.7 |
| 20260506191547 | 65 | 269 | 0.0 | 1.7 | 0.00 | 0.00 | 0.00 | 54 | 1004.6 |
| 20260506190547 | 64 | 135 | 0.0 | 1.7 | 0.00 | 0.00 | 0.00 | 54 | 1004.2 |
| 20260506185547 | 64 | 57 | 0.0 | 1.7 | 0.00 | 0.00 | 0.00 | 55 | 1004.5 |
| 20260506184547 | 64 | 126 | 1.7 | 1.7 | 0.00 | 0.00 | 0.00 | 56 | 1004.2 |
| 20260506183547 | 64 | 117 | 0.0 | 1.7 | 0.00 | 0.00 | 0.00 | 57 | 1004.1 |
| 20260506182547 | 65 | 350 | 0.9 | 1.7 | 0.00 | 0.00 | 0.00 | 56 | 1004.2 |
| 20260506181547 | 66 | 136 | 0.0 | 2.6 | 0.00 | 0.00 | 0.00 | 54 | 1003.9 |
| 20260506180547 | 67 | 89 | 0.9 | 3.5 | 0.00 | 0.00 | 0.00 | 53 | 1003.8 |
| 20260506175547 | 67 | 343 | 0.0 | 3.5 | 0.00 | 0.00 | 0.00 | 52 | 1003.6 |
| 20260506174547 | 68 | 139 | 1.7 | 3.5 | 0.00 | 0.00 | 0.00 | 51 | 1003.8 |
| 20260506173547 | 69 | 88 | 1.7 | 3.5 | 0.00 | 0.00 | 0.00 | 50 | 1003.6 |
| 20260506172547 | 70 | 44 | 0.0 | 1.7 | 0.00 | 0.00 | 0.00 | 48 | 1003.5 |
| 20260506171547 | 70 | 87 | 0.0 | 1.7 | 0.00 | 0.00 | 0.00 | 46 | 1003.5 |
| 20260506170547 | 71 | 81 | 0.0 | 1.7 | 0.00 | 0.00 | 0.00 | 44 | 1003.3 |
| 20260506165547 | 71 | 65 | 0.0 | 2.6 | 0.00 | 0.00 | 0.00 | 43 | 1003.5 |
| 20260506164547 | 72 | 59 | 4.3 | 4.3 | 0.00 | 0.00 | 0.00 | 42 | 1003.4 |
| 20260506163547 | 72 | 68 | 1.7 | 3.5 | 0.00 | 0.00 | 0.00 | 41 | 1003.2 |
| 20260506162547 | 73 | 85 | 0.9 | 1.7 | 0.00 | 0.00 | 0.00 | 41 | 1003.3 |
| 20260506161547 | 73 | 47 | 1.7 | 3.5 | 0.00 | 0.00 | 0.00 | 41 | 1003.2 |
| 20260506160547 | 74 | 68 | 2.6 | 4.3 | 0.00 | 0.00 | 0.00 | 40 | 1003.3 |
| 20260506155547 | 74 | 74 | 0.9 | 5.2 | 0.00 | 0.00 | 0.00 | 40 | 1003.2 |
| 20260506154547 | 74 | 20 | 0.9 | 4.3 | 0.00 | 0.00 | 0.00 | 40 | 1003.2 |
| 20260506153547 | 75 | 57 | 0.9 | 4.3 | 0.00 | 0.00 | 0.00 | 39 | 1003.4 |
| 20260506152547 | 75 | 88 | 0.0 | 4.3 | 0.00 | 0.00 | 0.00 | 38 | 1003.4 |
| 20260506151547 | 76 | 91 | 1.7 | 4.3 | 0.00 | 0.00 | 0.00 | 37 | 1003.3 |
| 20260506150547 | 76 | 0 | 0.0 | 2.6 | 0.00 | 0.00 | 0.00 | 38 | 1003.6 |
| 20260506145547 | 76 | 113 | 0.9 | 2.6 | 0.00 | 0.00 | 0.00 | 36 | 1003.3 |
| 20260506144547 | 77 | 359 | 1.7 | 1.7 | 0.00 | 0.00 | 0.00 | 36 | 1003.2 |
| 20260506143547 | 78 | 99 | 0.0 | 4.3 | 0.00 | 0.00 | 0.00 | 35 | 1003.5 |
| 20260506142547 | 79 | 60 | 0.0 | 1.7 | 0.00 | 0.00 | 0.00 | 33 | 1003.3 |
| 20260506141547 | 79 | 289 | 0.0 | 0.9 | 0.00 | 0.00 | 0.00 | 34 | 1003.3 |
| 20260506140547 | 80 | 212 | 0.0 | 1.7 | 0.00 | 0.00 | 0.00 | 34 | 1003.6 |
| 20260506135547 | 80 | 53 | 0.9 | 1.7 | 0.00 | 0.00 | 0.00 | 34 | 1003.3 |
| 20260506134547 | 79 | 284 | 0.0 | 0.9 | 0.00 | 0.00 | 0.00 | 35 | 1003.3 |
| 20260506133547 | 79 | 56 | 0.9 | 2.6 | 0.00 | 0.00 | 0.00 | 35 | 1003.4 |
| 20260506132547 | 80 | 54 | 1.7 | 1.7 | 0.00 | 0.00 | 0.00 | 34 | 1003.7 |
| 20260506131547 | 80 | 314 | 0.0 | 1.7 | 0.00 | 0.00 | 0.00 | 35 | 1003.6 |
| 20260506130547 | 80 | 209 | 0.0 | 1.7 | 0.00 | 0.00 | 0.00 | 35 | 1003.7 |
| 20260506125547 | 80 | 206 | 3.5 | 3.5 | 0.00 | 0.00 | 0.00 | 34 | 1003.7 |
| 20260506124547 | 81 | 355 | 0.0 | 1.7 | 0.00 | 0.00 | 0.00 | 35 | 1003.7 |
| 20260506123547 | 80 | 323 | 0.0 | 2.6 | 0.00 | 0.00 | 0.00 | 33 | 1003.9 |
| 20260506122547 | 81 | 126 | 0.0 | 0.9 | 0.00 | 0.00 | 0.00 | 34 | 1003.7 |
| 20260506121547 | 79 | 198 | 0.9 | 1.7 | 0.00 | 0.00 | 0.00 | 35 | 1004.1 |
| 20260506120547 | 78 | 59 | 0.0 | 1.7 | 0.00 | 0.00 | 0.00 | 36 | 1004.1 |
| 20260506115547 | 79 | 133 | 2.6 | 2.6 | 0.00 | 0.00 | 0.00 | 35 | 1004.3 |
| 20260506114547 | 80 | 227 | 0.0 | 1.7 | 0.00 | 0.00 | 0.00 | 33 | 1004.3 |
| 20260506113547 | 80 | 278 | 0.9 | 3.5 | 0.00 | 0.00 | 0.00 | 34 | 1004.6 |
| 20260506112547 | 79 | 318 | 0.9 | 1.7 | 0.00 | 0.00 | 0.00 | 35 | 1004.4 |